[[{"header":{"parameterUnit":"m.s-1","parameterCategory":1,"la1":30.2991,"la2":30.254,"lo1":-89.0895,"lo2":-89.0444,"dy":0.0017,"dx":0.0017,"nx":28,"ny":28,"refTime":"2025-07-07T21:00:00:Z","depth":0,"parameterNumber":2,"parameterNumberName":"U-component_of_WINDS"},"data":[0,0,0,0,0,0,0,0,0,0,0,0,0,0,0,0,0,0,0,0,0,0,0,0,0,0,0,0,0,0,0,0,0,0,0,0,0,0,0,0,0,0,0,0,0,0,0,0,0,0,0,0,0,0,0,0,0,0,3.6069,3.6071,0,3.6212,3.6214,3.6215,3.6187,3.6184,3.6182,3.6179,3.6322,3.6328,3.6334,0,0,0,0,0,0,0,0,0,0,0,0,0,3.5769,3.5774,3.6069,3.6071,3.6073,3.6212,3.6214,3.6216,3.6187,3.6184,3.6181,3.6178,3.632,3.6327,3.6335,0,0,0,0,0,0,0,0,0,0,0,0,0,3.5904,3.5776,3.6069,3.6075,3.6077,3.6211,3.6214,3.6216,3.6188,3.6184,3.618,3.6176,3.6317,3.6327,3.6336,3.6471,0,0,3.6364,3.6368,0,0,0,0,0,0,0,0,3.5896,3.5915,3.6073,3.6075,3.6078,3.6178,3.616,3.6302,3.6189,3.6146,3.6179,3.6174,3.6277,3.6289,3.6325,3.6478,3.6484,3.6365,3.6371,3.6375,3.6377,0,0,0,0,0,0,0,3.5887,3.5909,3.6126,3.6075,3.6078,3.607,3.6085,3.6187,3.6231,3.6149,3.6148,3.6165,3.6277,3.6316,3.6328,3.6486,3.6365,3.6373,3.6379,3.6383,3.6757,3.6761,0,0,0,0,0,0,3.5876,3.5901,3.6121,3.613,3.5976,3.6079,3.6095,3.6149,3.623,3.6239,3.6168,3.6163,3.6302,3.6317,3.6333,3.6495,3.6375,3.6383,3.6389,3.6752,3.6758,3.6762,0,0,0,0,0,0,3.587,3.5896,3.6115,3.6015,3.6043,3.6088,3.6149,3.6154,3.6192,3.6245,3.6252,3.6199,3.6299,3.6319,3.6437,3.65,3.6388,3.6396,3.6747,3.6754,3.676,3.6823,0,0,0,0,0,0,3.5861,3.5894,3.5946,3.6017,3.6048,3.6219,3.6153,3.616,3.6209,3.6204,3.6276,3.6284,3.6298,3.6423,3.6446,3.6511,3.6403,3.6742,3.675,3.6758,3.6815,3.683,3.6844,0,0,0,0,0,3.585,3.5958,3.5949,3.5976,3.6115,3.6222,3.624,3.6255,3.6214,3.6267,3.63,3.6281,3.649,3.6435,3.6461,3.6529,3.6738,3.6748,3.6757,3.6809,3.6827,3.6843,0,0,0,0,0,0,3.5892,3.5967,3.5958,3.6092,3.6151,3.6217,3.6284,3.6274,3.6345,3.6337,3.6352,3.6368,3.6487,3.652,3.6459,3.6664,3.6608,3.6623,3.6638,3.6656,3.667,3.6659,3.6411,0,0,0,0,0,3.5918,3.6,3.606,3.6172,3.6202,3.6238,3.6285,3.6292,3.6353,3.6378,3.642,3.6479,3.6558,3.6609,3.6685,3.682,3.6835,3.688,3.6894,3.6906,3.6918,3.6991,3.7011,3.6794,3.6794,3.6794,0,0,3.5969,3.6021,3.6071,3.6182,3.6228,3.6311,3.6259,3.635,3.6411,3.6391,3.6504,3.6538,3.6605,3.6732,3.679,3.6763,3.6982,3.6918,3.6927,3.6933,3.7003,3.7024,3.7042,3.6801,3.68,3.6799,0,0,3.6106,3.6154,3.6252,3.63,3.6372,3.6395,3.6419,3.6487,3.6508,3.6623,3.6609,3.6682,3.6818,3.6866,3.6908,3.7064,3.7049,3.7088,3.7162,3.7233,3.725,3.7265,3.7319,3.7339,3.7101,3.7101,3.7101,0,3.6161,3.6287,3.6303,3.6395,3.6444,3.6431,3.6529,3.6575,3.6667,3.67,3.6669,3.6839,3.6884,3.7021,3.7059,3.7094,3.712,3.7079,3.7247,3.7262,3.7276,3.7328,3.7348,3.7105,3.7105,3.7104,3.7104,0,3.6351,3.6439,3.6509,3.6599,3.6656,3.6751,3.678,3.6835,3.6837,3.6863,3.6979,3.7032,3.7118,3.7151,3.7154,3.7289,3.727,3.7243,3.7186,3.7301,3.7349,3.737,3.7111,3.711,3.7109,3.7108,0,0,3.6516,3.6615,3.6641,3.6681,3.676,3.6827,3.6921,3.7006,3.7052,3.7117,3.7194,3.731,3.7285,3.7333,3.7341,3.7404,3.7522,3.7369,3.7371,3.7394,3.7673,3.7691,3.7714,3.7513,3.7517,3.752,3.7666,0,3.6659,3.6826,3.6843,3.6991,3.7072,3.7061,3.7143,3.7199,3.7227,3.7298,3.7328,3.7409,3.7371,3.74,3.7461,3.7495,3.7578,3.7485,3.7584,3.7587,3.7566,3.774,3.776,3.7895,3.7686,3.7689,3.7691,0,3.6848,3.6918,3.7075,3.7142,3.7176,3.725,3.7328,3.7397,3.7461,3.7476,3.753,3.753,3.7625,3.7567,3.7697,3.7634,3.7676,3.7698,3.7704,3.7712,3.7645,3.775,3.7939,3.7958,3.7722,3.7719,3.7717,0,3.695,3.7085,3.7196,3.7231,3.7313,3.7364,3.74,3.746,3.751,3.7578,3.761,3.7689,3.7732,3.7792,3.7813,3.7769,3.7943,3.7886,3.7956,3.7956,3.7992,3.7989,3.8187,3.8022,3.8022,3.8022,3.8021,0,3.7107,3.7202,3.7243,3.7311,3.7418,3.7437,3.7541,3.7575,3.7628,3.7701,3.7698,3.7766,3.779,3.7863,3.7879,3.7984,3.8004,3.8018,3.8021,3.8017,3.8015,3.8043,3.8034,3.8027,3.8026,3.8025,3.8024,0,3.7238,3.727,3.739,3.7458,3.7477,3.7552,3.761,3.7675,3.7702,3.7794,3.7817,3.7859,3.7944,3.7971,3.8074,3.8085,3.8207,3.8203,3.8186,3.8186,3.8254,3.8246,3.8476,3.8506,3.8323,3.8325,3.8326,0,3.7335,3.7408,3.7485,3.7534,3.7572,3.7652,3.7703,3.7725,3.7778,3.7856,3.7911,3.7996,3.8064,3.8201,3.8239,3.8318,3.8314,3.8389,3.8325,3.8319,3.8313,3.8307,3.8314,3.84,3.8402,3.8403,3.8405,0,3.7502,3.7514,3.7589,3.7669,3.773,3.7794,3.7855,3.7896,3.7926,3.7986,3.8073,3.8127,3.8232,3.8315,3.8395,3.8431,3.8423,3.8425,3.8445,3.8441,3.8427,3.8433,3.8216,3.8419,3.8417,3.8416,3.8416,3.8415,3.7618,3.7683,3.7746,3.7829,3.7878,3.7936,3.8,3.8035,3.8109,3.8197,3.8205,3.83,3.8361,3.8467,3.8507,3.858,3.8559,3.8588,3.8595,3.8602,3.8606,3.8418,3.8595,3.8595,3.8594,3.8594,3.8594,0,3.7783,3.7824,3.7901,3.7987,3.8052,3.8041,3.8108,3.8163,3.8246,3.8304,3.8372,3.8473,3.8554,3.86,3.868,3.873,3.8728,3.875,3.8745,3.8754,3.8622,3.8596,3.875,3.875,3.875,3.875,3.875,3.875,3.7877,3.7985,3.8005,3.8137,3.8177,3.827,3.8309,3.8362,3.8409,3.8521,3.8589,3.8619,3.8672,3.8757,3.883,3.8842,3.887,3.8895,3.8903,3.8779,3.8763,3.8748,3.8723,3.8902,3.8902,3.9029,3.903,3.9031]},{"header":{"parameterUnit":"m.s-1","parameterCategory":1,"la1":30.2991,"la2":30.254,"lo1":-89.0895,"lo2":-89.0444,"dy":0.0017,"dx":0.0017,"nx":28,"ny":28,"refTime":"2025-07-07T21:00:00:Z","depth":0,"parameterNumber":3,"parameterNumberName":"V-component_of_WINDS"},"data":[0,0,0,0,0,0,0,0,0,0,0,0,0,0,0,0,0,0,0,0,0,0,0,0,0,0,0,0,0,0,0,0,0,0,0,0,0,0,0,0,0,0,0,0,0,0,0,0,0,0,0,0,0,0,0,0,0,0,2.552,2.5521,0,2.5653,2.5654,2.5656,2.569,2.5689,2.5689,2.5688,2.5824,2.5829,2.5833,0,0,0,0,0,0,0,0,0,0,0,0,0,2.5295,2.5298,2.5519,2.5521,2.5523,2.5652,2.5654,2.5656,2.569,2.5689,2.5688,2.5687,2.5823,2.5828,2.5833,0,0,0,0,0,0,0,0,0,0,0,0,0,2.5406,2.53,2.5519,2.5555,2.556,2.5652,2.5654,2.5657,2.5691,2.5689,2.5688,2.5687,2.5821,2.5828,2.5834,2.59,0,0,2.5854,2.5857,0,0,0,0,0,0,0,0,2.54,2.5415,2.5548,2.5553,2.5558,2.5654,2.5625,2.5738,2.5691,2.5641,2.5688,2.5686,2.5769,2.5779,2.5807,2.5906,2.5912,2.5855,2.5859,2.5862,2.5864,0,0,0,0,0,0,0,2.5392,2.5409,2.5572,2.555,2.5556,2.5565,2.558,2.5647,2.571,2.5645,2.5648,2.5663,2.5771,2.5801,2.5811,2.5914,2.5855,2.5861,2.5865,2.5867,2.6073,2.6074,0,0,0,0,0,0,2.5378,2.5402,2.5568,2.5576,2.5475,2.557,2.5586,2.5624,2.5709,2.5721,2.5664,2.5664,2.579,2.5803,2.5815,2.5897,2.5862,2.5868,2.5872,2.6071,2.6073,2.6074,0,0,0,0,0,0,2.5373,2.5393,2.5563,2.549,2.5512,2.5575,2.5618,2.5628,2.5657,2.5724,2.5735,2.5683,2.579,2.5806,2.5878,2.5903,2.5871,2.5877,2.6069,2.6072,2.6074,2.6062,0,0,0,0,0,0,2.5367,2.5391,2.5416,2.549,2.5516,2.5623,2.5619,2.5631,2.5669,2.567,2.5744,2.5755,2.579,2.5868,2.5885,2.5911,2.5882,2.6067,2.607,2.6073,2.606,2.6063,2.6066,0,0,0,0,0,2.5358,2.5408,2.5417,2.5437,2.555,2.5625,2.5639,2.5678,2.567,2.5697,2.5739,2.5753,2.5897,2.5875,2.5894,2.5923,2.6066,2.6069,2.6073,2.6059,2.6063,2.6066,0,0,0,0,0,0,2.5335,2.5418,2.543,2.5505,2.5557,2.563,2.5665,2.5681,2.5736,2.5736,2.5781,2.5797,2.5866,2.5902,2.5876,2.599,2.5982,2.5989,2.5965,2.5969,2.5972,2.5962,2.5888,0,0,0,0,0,2.5339,2.5393,2.5462,2.5522,2.5548,2.5601,2.5636,2.566,2.5717,2.5739,2.5787,2.5841,2.5899,2.5936,2.5993,2.6066,2.6082,2.6095,2.6097,2.6099,2.6105,2.6146,2.6152,2.6085,2.6085,2.6085,0,0,2.5347,2.5399,2.543,2.5518,2.5562,2.5617,2.562,2.5678,2.5719,2.5748,2.5819,2.5856,2.5919,2.5992,2.6026,2.6024,2.6127,2.6104,2.6105,2.611,2.615,2.6156,2.6162,2.6088,2.6087,2.6087,0,0,2.539,2.5434,2.5489,2.5532,2.5598,2.5633,2.5646,2.5717,2.5742,2.5814,2.5837,2.5886,2.5984,2.6028,2.6064,2.6122,2.6137,2.6139,2.6154,2.6193,2.6198,2.6203,2.6224,2.623,2.6145,2.6145,2.6145,0,2.5391,2.5475,2.5514,2.5571,2.5609,2.5637,2.5692,2.5733,2.5814,2.5839,2.5835,2.5958,2.6003,2.6086,2.61,2.6128,2.6144,2.6131,2.6194,2.62,2.6205,2.6225,2.6232,2.6144,2.6144,2.6144,2.6144,0,2.5473,2.5531,2.5567,2.5644,2.5686,2.5741,2.5789,2.5826,2.5847,2.5883,2.5955,2.601,2.6078,2.6099,2.6121,2.6185,2.6182,2.6185,2.6177,2.621,2.623,2.6238,2.6144,2.6144,2.6144,2.6144,0,0,2.5506,2.5603,2.5616,2.5651,2.5725,2.577,2.5827,2.5893,2.5924,2.5979,2.6027,2.6109,2.6113,2.6153,2.6179,2.6214,2.6256,2.6213,2.6215,2.6219,2.633,2.6326,2.6335,2.6266,2.6267,2.6269,2.6324,0,2.5558,2.566,2.5696,2.578,2.5833,2.5861,2.591,2.5961,2.5995,2.6045,2.6084,2.6141,2.6142,2.6166,2.6201,2.6243,2.6278,2.6239,2.6311,2.6313,2.6294,2.6345,2.6342,2.6392,2.6332,2.6334,2.6335,0,2.5632,2.5687,2.5776,2.5843,2.5866,2.591,2.5973,2.6021,2.6078,2.6101,2.6145,2.6169,2.6229,2.6217,2.63,2.6273,2.6304,2.6329,2.6332,2.634,2.6326,2.6354,2.6409,2.6416,2.6347,2.6346,2.6345,0,2.5646,2.5742,2.5808,2.5837,2.5917,2.5947,2.5981,2.6038,2.6075,2.613,2.6155,2.6216,2.625,2.6297,2.6337,2.6324,2.6416,2.6407,2.6436,2.6435,2.6455,2.6453,2.6515,2.6475,2.6475,2.6474,2.6474,0,2.57,2.5753,2.5815,2.5856,2.5916,2.5957,2.6016,2.6052,2.6102,2.615,2.6177,2.6222,2.6272,2.6322,2.6354,2.6417,2.6432,2.6452,2.646,2.645,2.6447,2.6471,2.6469,2.6476,2.6476,2.6476,2.6475,0,2.5726,2.577,2.5843,2.5912,2.5931,2.5972,2.6032,2.6072,2.6107,2.6167,2.6183,2.6239,2.63,2.6344,2.6423,2.6444,2.6512,2.652,2.6493,2.6497,2.6523,2.652,2.6602,2.6615,2.6566,2.6567,2.6567,0,2.5758,2.5799,2.5873,2.5906,2.5941,2.5995,2.6033,2.6075,2.6113,2.6182,2.6213,2.6276,2.6328,2.6424,2.6472,2.6532,2.6542,2.6566,2.6551,2.6539,2.6542,2.6539,2.6543,2.6569,2.6569,2.6569,2.6569,0,2.5809,2.5828,2.5882,2.5942,2.5986,2.6036,2.6087,2.6113,2.6164,2.6205,2.6268,2.6308,2.6388,2.645,2.6515,2.6551,2.6569,2.6574,2.6584,2.6574,2.6556,2.6566,2.6499,2.6572,2.6571,2.6571,2.6571,2.6571,2.5839,2.5877,2.5934,2.5992,2.6034,2.6081,2.6121,2.6161,2.6214,2.6282,2.6304,2.6368,2.6425,2.6514,2.655,2.6601,2.66,2.6615,2.6618,2.6621,2.662,2.6548,2.6613,2.6613,2.6613,2.6613,2.6613,0,2.5891,2.5929,2.5982,2.6051,2.6097,2.6109,2.6165,2.6203,2.6259,2.631,2.6361,2.6432,2.6492,2.6544,2.6606,2.6637,2.6646,2.6652,2.665,2.6658,2.6618,2.6603,2.6643,2.6643,2.6643,2.6643,2.6643,2.6643,2.5924,2.5988,2.6014,2.6099,2.6137,2.62,2.6231,2.6274,2.6315,2.6393,2.6442,2.6476,2.6527,2.6593,2.6648,2.6662,2.6684,2.6687,2.6702,2.6664,2.666,2.6657,2.6643,2.6691,2.6691,2.6738,2.6739,2.6739]}]]